• In Austria
  • List of Countries
  • For 7 days
  • Water Temperature
  • Satellite Maps
  • Weather Map
  • News
  • Weather Widgets
  • user-avatar
    Login

    Hourly Weather Soma Bey

    Today, 19 October, Thursday

    Time Temperature Precipitation Wind Pressure Humidity
    00:00 +25°C° 0 mm 2 mps 748 mmHg 33%
    01:00 +24°C° 0 mm 2 mps 748 mmHg 33%
    02:00 +24°C° 0 mm 1 mps 748 mmHg 32%
    03:00 +23°C° 0 mm 2 mps 748 mmHg 33%
    04:00 +23°C° 0 mm 2 mps 748 mmHg 33%
    05:00 +23°C° 0 mm 2 mps 748 mmHg 34%
    06:00 +25°C° 0 mm 2 mps 748 mmHg 30%
    07:00 +27°C° 0 mm 2 mps 749 mmHg 26%
    08:00 +30°C° 0 mm 3 mps 749 mmHg 23%
    09:00 +31°C° 0 mm 3 mps 749 mmHg 21%
    10:00 +33°C° 0 mm 3 mps 749 mmHg 20%
    11:00 +34°C° 0 mm 3 mps 749 mmHg 19%
    12:00 +35°C° 0 mm 3 mps 749 mmHg 20%
    13:00 +35°C° 0 mm 4 mps 749 mmHg 20%
    14:00 +36°C° 0 mm 4 mps 748 mmHg 21%
    15:00 +34°C° 0 mm 3 mps 748 mmHg 25%
    16:00 +33°C° 0 mm 3 mps 748 mmHg 29%
    17:00 +31°C° 0 mm 2 mps 748 mmHg 33%
    18:00 +30°C° 0 mm 2 mps 748 mmHg 37%
    19:00 +29°C° 0 mm 2 mps 749 mmHg 40%
    20:00 +28°C° 0 mm 2 mps 749 mmHg 44%
    21:00 +27°C° 0 mm 2 mps 749 mmHg 44%
    22:00 +27°C° 0 mm 2 mps 749 mmHg 45%
    23:00 +26°C° 0 mm 2 mps 749 mmHg 45%

    Tomorrow, 20 October, Friday

    Time Temperature Precipitation Wind Pressure Humidity
    00:00 +26°C° 0 mm 2 mps 749 mmHg 45%
    01:00 +25°C° 0 mm 2 mps 749 mmHg 45%
    02:00 +25°C° 0 mm 3 mps 748 mmHg 45%
    03:00 +25°C° 0 mm 3 mps 748 mmHg 46%
    04:00 +24°C° 0 mm 3 mps 749 mmHg 48%
    05:00 +23°C° 0 mm 4 mps 749 mmHg 49%
    06:00 +26°C° 0 mm 4 mps 749 mmHg 45%
    07:00 +27°C° 0 mm 4 mps 749 mmHg 41%
    08:00 +29°C° 0 mm 4 mps 750 mmHg 37%
    09:00 +30°C° 0 mm 4 mps 750 mmHg 34%
    10:00 +33°C° 0 mm 4 mps 750 mmHg 31%
    11:00 +34°C° 0 mm 4 mps 750 mmHg 27%
    12:00 +34°C° 0 mm 4 mps 749 mmHg 27%
    13:00 +35°C° 0 mm 5 mps 749 mmHg 26%
    14:00 +35°C° 0 mm 5 mps 748 mmHg 26%
    15:00 +34°C° 0 mm 4 mps 748 mmHg 30%
    16:00 +33°C° 0 mm 4 mps 748 mmHg 33%
    17:00 +31°C° 0 mm 3 mps 748 mmHg 37%
    18:00 +30°C° 0 mm 3 mps 748 mmHg 41%
    19:00 +29°C° 0 mm 3 mps 749 mmHg 46%
    20:00 +28°C° 0 mm 3 mps 749 mmHg 50%
    21:00 +27°C° 0 mm 3 mps 749 mmHg 51%
    22:00 +27°C° 0 mm 2 mps 749 mmHg 51%
    23:00 +26°C° 0 mm 2 mps 749 mmHg 51%

    Day after tomorrow, 21 October, Saturday

    Time Temperature Precipitation Wind Pressure Humidity
    00:00 +26°C° 0 mm 2 mps 749 mmHg 51%
    01:00 +25°C° 0 mm 3 mps 749 mmHg 51%
    02:00 +25°C° 0 mm 3 mps 749 mmHg 51%
    03:00 +25°C° 0 mm 3 mps 749 mmHg 52%
    04:00 +24°C° 0 mm 3 mps 749 mmHg 52%
    05:00 +23°C° 0 mm 4 mps 749 mmHg 53%
    06:00 +26°C° 0 mm 4 mps 749 mmHg 49%
    07:00 +27°C° 0 mm 4 mps 749 mmHg 44%
    08:00 +29°C° 0 mm 4 mps 750 mmHg 40%
    09:00 +30°C° 0 mm 4 mps 750 mmHg 36%
    10:00 +32°C° 0 mm 4 mps 750 mmHg 32%
    11:00 +34°C° 0 mm 4 mps 749 mmHg 28%
    12:00 +34°C° 0 mm 5 mps 749 mmHg 27%
    13:00 +35°C° 0 mm 5 mps 748 mmHg 27%
    14:00 +35°C° 0 mm 5 mps 748 mmHg 26%
    15:00 +34°C° 0 mm 5 mps 748 mmHg 30%
    16:00 +33°C° 0 mm 4 mps 748 mmHg 33%
    17:00 +31°C° 0 mm 3 mps 747 mmHg 36%
    18:00 +30°C° 0 mm 3 mps 748 mmHg 40%
    19:00 +29°C° 0 mm 3 mps 748 mmHg 45%
    20:00 +27°C° 0 mm 3 mps 748 mmHg 49%
    21:00 +27°C° 0 mm 2 mps 748 mmHg 50%
    22:00 +26°C° 0 mm 2 mps 748 mmHg 51%
    23:00 +26°C° 0 mm 2 mps 748 mmHg 52%

    22 October, Sunday

    Time Temperature Precipitation Wind Pressure Humidity
    00:00 +25°C° 0 mm 2 mps 748 mmHg 52%
    01:00 +25°C° 0 mm 2 mps 748 mmHg 52%
    02:00 +24°C° 0 mm 2 mps 748 mmHg 53%
    03:00 +24°C° 0 mm 2 mps 748 mmHg 53%
    04:00 +24°C° 0 mm 3 mps 748 mmHg 53%
    05:00 +22°C° 0 mm 3 mps 748 mmHg 53%
    06:00 +25°C° 0 mm 3 mps 748 mmHg 49%
    07:00 +26°C° 0 mm 3 mps 748 mmHg 44%
    08:00 +28°C° 0 mm 3 mps 749 mmHg 39%
    09:00 +29°C° 0 mm 3 mps 749 mmHg 35%
    10:00 +31°C° 0 mm 3 mps 748 mmHg 31%
    11:00 +33°C° 0 mm 3 mps 748 mmHg 27%
    12:00 +34°C° 0 mm 4 mps 748 mmHg 26%
    13:00 +34°C° 0 mm 4 mps 747 mmHg 25%
    14:00 +35°C° 0 mm 5 mps 746 mmHg 24%
    15:00 +34°C° 0 mm 4 mps 746 mmHg 28%
    16:00 +33°C° 0 mm 3 mps 746 mmHg 31%
    17:00 +31°C° 0 mm 3 mps 747 mmHg 34%
    18:00 +29°C° 0 mm 2 mps 747 mmHg 38%
    19:00 +28°C° 0 mm 2 mps 747 mmHg 42%
    20:00 +27°C° 0 mm 2 mps 748 mmHg 46%
    21:00 +26°C° 0 mm 2 mps 748 mmHg 48%
    22:00 +26°C° 0 mm 2 mps 747 mmHg 49%
    23:00 +25°C° 0 mm 2 mps 747 mmHg 51%

    23 October, Monday

    Time Temperature Precipitation Wind Pressure Humidity
    00:00 +25°C° 0 mm 2 mps 747 mmHg 51%
    01:00 +24°C° 0 mm 2 mps 747 mmHg 51%
    02:00 +24°C° 0 mm 3 mps 747 mmHg 51%
    03:00 +24°C° 0 mm 3 mps 747 mmHg 51%
    04:00 +22°C° 0 mm 3 mps 747 mmHg 51%
    05:00 +22°C° 0 mm 3 mps 747 mmHg 51%
    06:00 +25°C° 0 mm 4 mps 747 mmHg 47%
    07:00 +26°C° 0 mm 4 mps 748 mmHg 43%
    08:00 +27°C° 0 mm 4 mps 748 mmHg 39%
    09:00 +28°C° 0 mm 4 mps 748 mmHg 35%
    10:00 +30°C° 0 mm 5 mps 748 mmHg 32%
    11:00 +32°C° 0 mm 5 mps 748 mmHg 28%
    12:00 +32°C° 0 mm 5 mps 747 mmHg 27%
    13:00 +33°C° 0 mm 5 mps 747 mmHg 26%
    14:00 +33°C° 0 mm 6 mps 746 mmHg 25%
    15:00 +32°C° 0 mm 5 mps 746 mmHg 29%
    16:00 +30°C° 0 mm 5 mps 747 mmHg 34%
    17:00 +29°C° 0 mm 5 mps 747 mmHg 38%
    18:00 +28°C° 0 mm 4 mps 747 mmHg 42%
    19:00 +27°C° 0 mm 4 mps 747 mmHg 46%
    20:00 +26°C° 0 mm 3 mps 748 mmHg 50%
    21:00 +26°C° 0 mm 3 mps 748 mmHg 51%
    22:00 +25°C° 0 mm 3 mps 748 mmHg 53%
    23:00 +25°C° 0 mm 3 mps 748 mmHg 54%

    24 October, Tuesday

    Time Temperature Precipitation Wind Pressure Humidity
    00:00 +24°C° 0 mm 3 mps 748 mmHg 55%
    01:00 +24°C° 0 mm 3 mps 747 mmHg 55%
    02:00 +22°C° 0 mm 3 mps 747 mmHg 56%
    03:00 +22°C° 0 mm 3 mps 747 mmHg 56%
    04:00 +22°C° 0 mm 3 mps 747 mmHg 56%
    05:00 +21°C° 0 mm 3 mps 748 mmHg 56%
    06:00 +24°C° 0 mm 3 mps 748 mmHg 50%
    07:00 +25°C° 0 mm 3 mps 748 mmHg 44%
    08:00 +27°C° 0 mm 3 mps 748 mmHg 39%
    09:00 +28°C° 0 mm 3 mps 748 mmHg 35%
    10:00 +29°C° 0 mm 3 mps 748 mmHg 31%
    11:00 +31°C° 0 mm 3 mps 748 mmHg 27%
    12:00 +31°C° 0 mm 3 mps 747 mmHg 27%
    13:00 +33°C° 0 mm 4 mps 747 mmHg 26%
    14:00 +33°C° 0 mm 4 mps 746 mmHg 26%
    15:00 +31°C° 0 mm 3 mps 747 mmHg 28%
    16:00 +30°C° 0 mm 3 mps 747 mmHg 31%
    17:00 +29°C° 0 mm 2 mps 747 mmHg 34%
    18:00 +28°C° 0 mm 2 mps 747 mmHg 37%
    19:00 +27°C° 0 mm 1 mps 748 mmHg 41%
    20:00 +26°C° 0 mm 1 mps 748 mmHg 44%
    21:00 +26°C° 0 mm 1 mps 748 mmHg 44%
    22:00 +25°C° 0 mm 1 mps 748 mmHg 43%
    23:00 +25°C° 0 mm 1 mps 748 mmHg 43%
    Show more